Weather in Ipswich

United Kingdom     52˚03′30″N   1˚11′41″E
temp.,
°C
wind,
m/s
gust,
m/s
humid.,
%
clouds,
%
prec.,
mm/h
press.,
hPa
HPBL,
m
16 january, sat
sat1600:00+2˚sw477784 0.0 1029458
03:00+2˚ssw61080100 0.0 1027517
06:00+3˚ssw81279100 0.0 1024748
09:00+2˚s101597100 2.6 1020622
12:00+5˚ssw101693100 8.5 1017746
15:00+6˚wsw61095100 0.8 1015395
18:00+5˚wnw51294100 0.8 1015350
21:00+5˚wnw61490100 0.0 1017449
17 january, sun
sun1700:00+3˚wnw51290100 0.0 1018392
03:00+3˚wnw61388100 0.0 1018434
06:00+3˚wnw71387100 0.1 1019591
09:00+3˚wnw6129085 0.2 1021505
12:00+5˚nw7118142 0.2 1023757
15:00+5˚wnw5118467 0.0 1023630
18:00+4˚w5109083 0.0 1025350
21:00+3˚w51091100 0.0 1024276
18 january, mon
mon1800:00+3˚w599165 0.0 1025234
03:00+2˚wsw5109211 0.0 1023255
06:00+2˚wsw611926 0.0 1023279
09:00+2˚wsw6129262 0.0 1022328
12:00+5˚wsw6118481 0.0 1022546
15:00+6˚wsw61179100 0.0 1020651
18:00+4˚sw5108499 0.0 1018416
21:00+6˚sw91584100 0.0 1015665
19 january, tue
tue1900:00+7˚ssw111890100 0.6 1010765
03:00+10˚sw111992100 3.9 1005863
06:00+10˚sw111986100 3.9 1004897
09:00+10˚sw101984100 0.0 1004920
12:00+10˚sw111883100 0.1 10021007
15:00+10˚sw111984100 0.4 10001088
18:00+9˚ssw132188100 0.9 9971004
21:00+9˚ssw132188100 1.2 994976
20 january, wed
wed2000:00+10˚sw122090100 3.9 992971
03:00+10˚ssw111993100 2.7 989899
06:00+10˚ssw142190100 6.8 9871000
09:00+10˚ssw142188100 4.1 9851032
12:00+10˚ssw142289100 7.3 9841136
15:00+8˚w5992100 5.4 983538
18:00+6˚wnw6988100 8.1 985730
21:00+4˚wsw51086100 0.7 987705